Lexington, NE

8:21 AM CDT on October 19, 2017 (GMT -0500)
Kelly

Weather History for KLXN - March, 2012

Change the Weather History Date:

Thursday, March 8, 2012

  Actual Average Record
Temperature  
Mean Temperature 36 °F -  
Max Temperature 52 °F 42 °F 71 °F (1997)
Min Temperature 21 °F 19 °F 10 °F (1998)
Degree Days  
Heating Degree Days 28    
Moisture  
Dew Point 15 °F    
Average Humidity 50    
Maximum Humidity 84    
Minimum Humidity 18    
Precipitation  
Precipitation 0.00 in - - ()
Sea Level Pressure  
Sea Level Pressure 30.35 in    
Wind  
Wind Speed 10 mph (NW)    
Max Wind Speed 20 mph    
Max Gust Speed 31 mph    
Visibility 10 miles    
Events      
Averages and records for this station are not official NWS values.
T = Trace of Precipitation, MM = Missing Value Source: NWS Daily Summary

Daily Weather History Graph

Daily Weather History Graph

Search for Another Location

Airport or City:

Trip Planner

Search our weather history database for the weather conditions in past years. The results will help you decide how hot, cold, wet, or windy it might be!

Date:

Astronomy

Mar. 08, 2012 Rise Set
Actual Time 7:01 AM CST 6:38 PM CST
Civil Twilight 6:33 AM CST 7:06 PM CST
Nautical Twilight 6:02 AM CST 7:37 PM CST
Astronomical Twilight 5:30 AM CST 8:09 PM CST
Moon 7:29 PM CST (3/8) 6:45 AM CST (3/8)
Length of Visible Light 12h 32m
Length of Day
11h 37m
Full, 100% of the Moon is Illuminated
Mar 8
Full
Mar 14
Last Quarter
Mar 22
New
Mar 30
First Quarter
Apr 6
Full

Hourly Weather History & Observations

Time (CST) Temp. Windchill Dew Point Humidity Pressure Visibility Wind Dir Wind Speed Gust Speed Precip Events Conditions
12:15 AM 27.5 °F 20.2 °F 20.8 °F 76% 30.17 in 10.0 mi NW 6.9 mph - N/A   Clear
12:35 AM 28.9 °F 21.9 °F 20.3 °F 70% 30.18 in 10.0 mi NW 6.9 mph - N/A   Clear
12:55 AM 26.6 °F 21.2 °F 19.4 °F 74% 30.20 in 10.0 mi NW 4.6 mph - N/A   Clear
1:15 AM 24.8 °F 17.9 °F 18.7 °F 78% 30.21 in 10.0 mi NNW 5.8 mph - N/A   Clear
1:35 AM 23.2 °F 14.1 °F 18.1 °F 81% 30.21 in 10.0 mi NNW 8.1 mph - N/A   Clear
2:35 AM 24.8 °F 16.1 °F 18.5 °F 77% 30.21 in 10.0 mi NW 8.1 mph - N/A   Clear
2:55 AM 24.8 °F 14.6 °F 18.9 °F 78% 30.22 in 10.0 mi NW 10.4 mph - N/A   Clear
3:15 AM 24.8 °F 15.3 °F 18.5 °F 77% 30.24 in 10.0 mi NW 9.2 mph - N/A   Clear
3:35 AM 22.8 °F 14.5 °F 18.0 °F 82% 30.24 in 10.0 mi West 6.9 mph - N/A   Clear
3:55 AM 21.7 °F 12.3 °F 17.4 °F 83% 30.27 in 10.0 mi West 8.1 mph - N/A   Clear
4:15 AM 21.7 °F 12.3 °F 17.4 °F 83% 30.28 in 10.0 mi West 8.1 mph - N/A   Clear
4:35 AM 21.7 °F 10.8 °F 17.6 °F 84% 30.29 in 10.0 mi WNW 10.4 mph - N/A   Clear
4:55 AM 22.6 °F 11.3 °F 18.1 °F 83% 30.31 in 10.0 mi WNW 11.5 mph - N/A   Clear
5:15 AM 22.1 °F 10.0 °F 17.8 °F 83% 30.31 in 10.0 mi WNW 12.7 mph - N/A   Clear
5:35 AM 22.5 °F 10.5 °F 17.4 °F 81% 30.31 in 10.0 mi NW 12.7 mph - N/A   Clear
5:55 AM 22.8 °F 12.2 °F 17.2 °F 79% 30.32 in 10.0 mi WNW 10.4 mph - N/A   Clear
6:15 AM 23.0 °F 11.7 °F 17.1 °F 78% 30.32 in 10.0 mi WNW 11.5 mph - N/A   Clear
6:35 AM 23.5 °F 11.8 °F 16.9 °F 76% 30.34 in 10.0 mi NW 12.7 mph - N/A   Clear
6:55 AM 21.7 °F 10.2 °F 16.5 °F 80% 30.35 in 10.0 mi NW 11.5 mph - N/A   Clear
7:15 AM 22.8 °F 11.5 °F 17.4 °F 80% 30.36 in 10.0 mi NW 11.5 mph - N/A   Clear
7:35 AM 23.9 °F 14.2 °F 17.6 °F 77% 30.37 in 10.0 mi WNW 9.2 mph - N/A   Clear
7:55 AM 24.8 °F 14.0 °F 18.3 °F 76% 30.37 in 10.0 mi WNW 11.5 mph - N/A   Clear
8:15 AM 26.4 °F 16.6 °F 18.9 °F 73% 30.38 in 10.0 mi WNW 10.4 mph - N/A   Clear
8:35 AM 28.4 °F 18.5 °F 19.4 °F 69% 30.39 in 10.0 mi NW 11.5 mph - N/A   Clear
8:55 AM 30.9 °F 22.2 °F 20.1 °F 64% 30.39 in 10.0 mi NW 10.4 mph - N/A   Clear
9:15 AM 33.3 °F 24.6 °F 21.0 °F 61% 30.39 in 10.0 mi NW 11.5 mph - N/A   Clear
9:35 AM 35.8 °F 26.9 °F 20.8 °F 55% 30.40 in 10.0 mi NW 13.8 mph - N/A   Clear
9:55 AM 37.6 °F 31.0 °F 21.7 °F 53% 30.41 in 10.0 mi WNW 9.2 mph - N/A   Clear
10:15 AM 40.6 °F 33.8 °F 20.7 °F 45% 30.41 in 10.0 mi NW 11.5 mph - N/A   Clear
10:35 AM 42.4 °F 34.7 °F 18.5 °F 38% 30.40 in 10.0 mi NNW 16.1 mph 24.2 mph N/A   Clear
11:15 AM 45.9 °F 38.5 °F 14.5 °F 28% 30.40 in 10.0 mi North 18.4 mph 29.9 mph N/A   Clear
11:55 AM 47.8 °F - 13.3 °F 25% 30.40 in 10.0 mi North 19.6 mph 27.6 mph N/A   Clear
12:15 PM 47.7 °F - 14.0 °F 26% 30.40 in 10.0 mi North 16.1 mph 27.6 mph N/A   Clear
12:35 PM 49.1 °F - 11.8 °F 22% 30.40 in 10.0 mi North 17.3 mph 25.3 mph N/A   Clear
12:55 PM 49.3 °F - 13.3 °F 24% 30.40 in 10.0 mi North 10.4 mph 21.9 mph N/A   Clear
1:15 PM 49.8 °F - 13.3 °F 23% 30.39 in 10.0 mi NNW 15.0 mph 21.9 mph N/A   Clear
1:35 PM 50.7 °F - 12.6 °F 22% 30.39 in 10.0 mi North 11.5 mph 20.7 mph N/A   Clear
1:55 PM 50.7 °F - 11.3 °F 21% 30.38 in 10.0 mi North 17.3 mph 21.9 mph N/A   Clear
2:15 PM 51.1 °F - 11.1 °F 20% 30.38 in 10.0 mi North 13.8 mph 31.1 mph N/A   Clear
2:35 PM 51.1 °F - 11.8 °F 21% 30.38 in 10.0 mi NW 9.2 mph 17.3 mph N/A   Clear
2:55 PM 51.4 °F - 12.0 °F 21% 30.38 in 10.0 mi NNW 13.8 mph 19.6 mph N/A   Clear
3:15 PM 52.0 °F - 11.7 °F 20% 30.38 in 10.0 mi North 8.1 mph - N/A   Clear
3:35 PM 52.7 °F - 11.3 °F 19% 30.38 in 10.0 mi North 12.7 mph 18.4 mph N/A   Clear
3:55 PM 52.3 °F - 12.0 °F 20% 30.39 in 10.0 mi NNW 11.5 mph - N/A   Clear
4:15 PM 52.7 °F - 10.4 °F 18% 30.39 in 10.0 mi NNW 12.7 mph 18.4 mph N/A   Clear
4:35 PM 52.0 °F - 10.9 °F 19% 30.39 in 10.0 mi WNW 5.8 mph - N/A   Clear
4:55 PM 52.3 °F - 9.3 °F 18% 30.39 in 10.0 mi WNW 12.7 mph - N/A   Clear
5:15 PM 52.0 °F - 9.9 °F 18% 30.39 in 10.0 mi NW 9.2 mph 18.4 mph N/A   Clear
5:35 PM 51.4 °F - 10.0 °F 19% 30.39 in 10.0 mi NW 8.1 mph - N/A   Clear
5:55 PM 50.9 °F - 10.8 °F 20% 30.39 in 10.0 mi WNW 8.1 mph - N/A   Clear
6:15 PM 48.2 °F - 12.9 °F 24% 30.40 in 10.0 mi WNW 6.9 mph - N/A   Clear
6:35 PM 44.8 °F 41.6 °F 12.9 °F 28% 30.41 in 10.0 mi WNW 5.8 mph - N/A   Clear
6:55 PM 42.4 °F 38.8 °F 13.1 °F 30% 30.41 in 10.0 mi West 5.8 mph - N/A   Clear
7:15 PM 41.9 °F 37.5 °F 11.5 °F 29% 30.41 in 10.0 mi West 6.9 mph - N/A   Clear
7:35 PM 37.4 °F 32.8 °F 10.9 °F 34% 30.42 in 10.0 mi SW 5.8 mph - N/A   Clear
7:55 PM 36.3 °F 31.6 °F 11.3 °F 36% 30.42 in 10.0 mi WSW 5.8 mph - N/A   Clear
8:15 PM 33.1 °F 28.7 °F 12.9 °F 43% 30.42 in 10.0 mi WSW 4.6 mph - N/A   Clear
8:35 PM 34.3 °F 31.4 °F 12.9 °F 41% 30.43 in 10.0 mi WSW 3.5 mph - N/A   Clear
8:55 PM 33.4 °F 30.4 °F 13.5 °F 44% 30.43 in 10.0 mi SW 3.5 mph - N/A   Clear
9:15 PM 32.0 °F 28.7 °F 14.0 °F 48% 30.44 in 10.0 mi SW 3.5 mph - N/A   Clear
9:35 PM 31.3 °F - 14.4 °F 50% 30.44 in 10.0 mi Calm Calm - N/A   Clear
9:55 PM 28.2 °F 24.4 °F 14.5 °F 57% 30.45 in 10.0 mi NW 3.5 mph - N/A   Clear
10:15 PM 26.6 °F 20.0 °F 13.6 °F 58% 30.46 in 10.0 mi NW 5.8 mph - N/A   Clear
10:35 PM 26.6 °F 21.2 °F 13.8 °F 59% 30.46 in 10.0 mi NNW 4.6 mph - N/A   Clear
10:55 PM 26.4 °F 20.9 °F 13.8 °F 59% 30.46 in 10.0 mi NW 4.6 mph - N/A   Clear
11:15 PM 26.2 °F 19.6 °F 14.0 °F 60% 30.46 in 10.0 mi NW 5.8 mph - N/A   Clear
11:35 PM 25.7 °F 20.1 °F 16.2 °F 67% 30.46 in 10.0 mi NW 4.6 mph - N/A   Clear
11:55 PM 24.4 °F 20.1 °F 15.3 °F 68% 30.46 in 10.0 mi WNW 3.5 mph - N/A   Clear